Other Public Products
Issued by NWS Grand Forks, ND

Home | Current Version | Previous Version | Graphics & Text | Print | Product List | Glossary On
Versions: 1 2 3 4 5 6 7 8 9 10 11 12 13 14 15 16 17 18 19 20 21 22 23 24 25 26 27 28 29 30 31 32 33 34 35 36 37 38 39 40 41 42 43 44 45 46 47 48 49 50
000
FPUS83 KFGF 240710
OPUFGF
PRAIRIE TO PINES WEATHER ROUNDUP
NATIONAL WEATHER SERVICE EASTERN NORTH DAKOTA/GRAND FORKS ND
200 AM CDT TUE MAY 24 2016

 **SATELLITE DATA USED TO AUGMENT SKY COVER AT AUTOMATED STATIONS**
 *****  WEATHER ACROSS EASTERN NORTH DAKOTA  *****

CITY           SKY/WX    TMP DP  RH WIND       PRES   REMARKS
GRAND FORKS    CLOUDY    59  50  72 E6        29.71S
GRAND FORKS AF CLOUDY    62  51  66 E9        29.72S
GRAND CITY NWS   N/A     59 N/A N/A E5          N/A
BUXTON           N/A     62  54  75 NE3         N/A
DEVILS LAKE    MOCLDY    64  43  46 SW12      29.77R
FARGO          CLOUDY    61  46  57 NE6       29.73R
WAHPETON ARPT  CLOUDY    57  45  62 S6        29.72F
$$

 *****  WEATHER ACROSS CENTRAL AND WESTERN NORTH DAKOTA  *****

CITY           SKY/WX    TMP DP  RH WIND       PRES   REMARKS
JAMESTOWN      CLOUDY    57  50  77 NW9       29.78R
BISMARCK       CLOUDY    58  45  62 NE5       29.76R
MINOT          CLOUDY    52  43  71 SW9       29.75S
MINOT AFB      CLOUDY    48  39  71 W9        29.75R
GARRISON         N/A     49  42  77 CALM      29.78R
WILLISTON      CLEAR     46  38  73 SW6       29.78R
DICKINSON      CLEAR     44  34  67 W8        29.80R
HETTINGER      CLEAR     36  33  89 W6        29.82S
$$

 *****  OTHER OBSERVATIONS NORTHEAST NORTH DAKOTA  *****

CITY           SKY/WX    TMP DP  RH WIND       PRES   REMARKS
WALHALLA       FAIR      55  46  71 CALM      29.72F
LANGDON        PTSUNNY   54  46  76 W9        29.76S
CAVALIER       FAIR      59  50  72 W3        29.72F
GRAFTON        FAIR      57  52  82 E7        29.72F
CANDO          FAIR      59  43  55 CALM      29.77S
FORT TOTTEN      N/A     62  41  46 SW5       29.95S
ROLLA          FAIR      50  41  71 S8        29.77R
RUGBY          FAIR      54  43  66 SE8       29.76S
 ***** THE ABOVE OBSERVATIONS ARE NON NWS ARE NOT QUALITY
        CONTROLLED AND MAY MIS-REPORT RAIN FOR SNOW...
$$

 *****  OTHER OBSERVATIONS SOUTHEAST NORTH DAKOTA *****

CITY           SKY/WX    TMP DP  RH WIND       PRES   REMARKS
COOPERSTOWN    NOT AVBL
VALLEY CITY    LGT RAIN  59  54  82 N20G25    29.78R
OAKES            N/A    N/A N/A N/A MISG        N/A
GWINNER        FAIR      59  55  88 SW6       29.73S
SHEYENNE NWR     N/A     57  48  71 CALM      29.95S
BUFFALO          N/A     59  48  67 NE3         N/A
WYNDMERE         N/A     57  45  62 SW3         N/A
 ***** THE ABOVE OBSERVATIONS ARE NON NWS ARE NOT QUALITY
       CONTROLLED AND MAY MIS-REPORT RAIN FOR SNOW...
$$

  *****  WEATHER ACROSS NORTHERN MINNESOTA  *****

CITY           SKY/WX    TMP DP  RH WIND       PRES   REMARKS
FLAG ISLAND    PTCLDY    63  50  63 CALM      29.72R
WARROAD        CLOUDY    59  48  67 S5        29.73S
ROSEAU         CLOUDY    63  48  59 SW5       29.74R
HALLOCK        CLOUDY    63  48  59 CALM      29.71S
THF RVR FALLS  CLOUDY    61  46  59 NE6       29.76F
HALSTAD        NOT AVBL
FOSSTON          N/A     63  54  72 SW5       29.76R
BAUDETTE       CLOUDY    52  48  86 CALM      29.74R
WASKISH        MOCLDY    54  54 100 CALM      29.74F
CROOKSTON      CLOUDY    61  50  67 E7        29.73S
$$
  *****  WEATHER ACROSS CENTRAL AND WEST MINNESOTA  *****

CITY           SKY/WX    TMP DP  RH WIND       PRES   REMARKS
BEMIDJI        CLOUDY    62  56  79 SE9       29.76R
PARK RAPIDS    CLOUDY    65  61  87 CALM      29.76R
WADENA         CLOUDY    61  61 100 CALM      29.75S
DETROIT LAKES  CLOUDY    59  54  82 E6        29.76S
MOORHEAD       CLOUDY    61  48  63 NW5       29.75R
FERGUS FALLS   PTCLDY    64  54  68 SE5       29.70F
ELBOW LAKE     FAIR      59  54  83 S7        29.75R
MORRIS MN      MOCLDY    63  55  77 S3        29.74S
STAPLES        CLOUDY    61  61 100 CALM      29.75S
WHEATON        CLOUDY    63  55  77 CALM      29.75S
$$
  *****  WEATHER ELSEWHERE ACROSS MINNESOTA  *****

CITY           SKY/WX    TMP DP  RH WIND       PRES   REMARKS
DULUTH         MOCLDY    60  59  96 SE5       29.79S
INTRNTL FALLS  CLOUDY    51  51 100 CALM      29.75R FOG
ELY            CLOUDY    59  57  94 SE5       29.80S
CLOQUET        CLOUDY    59  57  94 CALM      29.78S
BRAINERD       CLOUDY    59  58  96 CALM      29.76S FOG
HIBBING        CLOUDY    59  58  96 CALM      29.78S
ALEXANDRIA     MOCLDY    61  60  97 S3        29.76S
SAINT CLOUD    CLOUDY    62  61  96 SE7       29.77R
MINNEAPOLIS    CLOUDY    67  61  81 S6        29.80S
$$

  *****  WEATHER ACROSS SOUTH DAKOTA  *****

CITY           SKY/WX    TMP DP  RH WIND       PRES   REMARKS
SIOUX FALLS    CLEAR     63  60  90 S7        29.78S
BROOKINGS      CLEAR     60  59  96 S7        29.78S FOG
WATERTOWN      CLEAR     59  54  83 SE5       29.77S
HURON          CLEAR     59  57  93 SE3       29.75R
SISSETON         N/A     62  53  72 SW6       29.72S
ABERDEEN       PTCLDY    56  52  86 S5        29.74S
MITCHELL       CLEAR     64  62  93 SE5       29.74F
PIERRE         CLEAR     61  41  47 W14       29.75R
MOBRIDGE       CLOUDY    58  45  62 E3        29.74R
RAPID CITY     CLEAR     55  35  47 NW15      29.83R
$$

  *****  SOME WEATHER IN NEARBY STATES *****

CITY           SKY/WX    TMP DP  RH WIND       PRES   REMARKS
GLASGOW MT     CLEAR     45  41  86 SW3       29.78R
GREAT FALLS MT CLOUDY    42  40  92 N3        29.89S
CHEYENNE WY    CLOUDY    45  38  76 W5        29.98S
SCOTTSBLUFF NE CLEAR     42  40  92 CALM      29.91R
OMAHA NE       CLOUDY    64  60  87 S13       29.84F
DES MOINES IA  TSTM      67  62  84 SW7       29.87S
DAVENPORT IA   PTCLDY    66  48  52 S8        29.92S
CHICAGO IL     PTCLDY    60  43  53 S8        29.94S
EAU CLAIRE WI  CLOUDY    65  62  90 SE6       29.84R
LA CROSSE WI   CLOUDY    67  60  78 E6        29.84F
$$

  *****  SOME NATIONAL WEATHER *****

CITY           SKY/WX    TMP DP  RH WIND       PRES   REMARKS
LA GUARDIA NY  LGT RAIN  62  58  86 W7        29.87F
RALEIGH NC     PTCLDY    52  50  93 CALM      30.03F
ATLANTA GA     PTCLDY    67  51  56 NE6       30.03S
NEW ORLEANS LA PTCLDY    72  64  76 SE6       30.00F
OKLAHOMA CITY  CLOUDY    70  69  97 S10       29.85F
ALBUQUERQUE NM CLEAR     59  15  18 SE8       29.95R
SALT LAKE CITY PTCLDY    53  43  68 S3        29.81F
LOS ANGELES CA PTCLDY    58  52  80 W8        29.93F
BOISE ID       MOCLDY    55  36  48 SE3       29.83R
SEATTLE WA     CLOUDY    58  48  69 N5        29.96R
$$

*** WEATHER ACROSS MANITOBA...SASKATCHEWAN AND ONTARIO ***
                ***ONTARIO***

CITY           SKY/WX    TMP DP  RH WIND       PRES   REMARKS
GERALDTON      NOT AVBL
THUNDER BAY    LGT RAIN  61  61 100 VRB2      29.78R
SIOUX LOOKOUT  MOCLDY    52  50  93 CALM      29.76R
TORONTO        CLEAR     59  39  47 NW5       29.97S
BIG TROUT LK   CLOUDY    37  36  93 N6        29.90R
PICKLE LAKE    NOT AVBL
DRYDEN         CLEAR     59  54  82 E2        29.75S
KENORA         MOCLDY    63  50  63 S6        29.74S
$$
                *** MANITOBA***

CITY           SKY/WX    TMP DP  RH WIND       PRES   REMARKS
BRANDON        PTCLDY    48  37  66 W5        29.73R
DAUPHIN        MOCLDY    50  43  76 W6        29.71R
ISLAND LAKE    LGT RAIN  41  39  93 NE8       29.92R
PILOT MOUND      N/A     48  41  76 S6          N/A
THE PAS        CLOUDY    46  41  81 E7        29.86R
THOMPSON       CLOUDY    37  36  93 E6        29.98R
WINNIPEG       PTCLDY    55  46  71 SE8       29.71R
LYNN LAKE      CLOUDY    37  32  81 E8        29.97R
CHURCHILL      MOCLDY    28  25  86 NW7       30.05S WCI  21
GILLAM         CLOUDY    28  23  80 NE10G17   30.04S WCI  19
$$
                ***SASKATCHEWAN***

CITY           SKY/WX    TMP DP  RH WIND       PRES   REMARKS
ESTEVAN        PTCLDY    43  37  81 SW9       29.74S
KINDERSLEY     CLOUDY    46  45  93 N13       29.75R
LLOYDMINSTER   CLOUDY    46  45  93 NE7       29.82R
PRINCE ALBERT  CLOUDY    48  46  93 NE12G18   29.77S
REGINA         MOCLDY    48  45  87 SW8       29.68R
YORKTON        CLEAR     48  45  87 S6        29.70R   C1F1C2F2C3F3C4F4C5F5C6F6C7F7C8F8C9F9CaFaCbFbCcFcCdFdCe!



USA.gov is the U.S. government's official web portal to all federal, state and local government web resources and services.